Погода в Даниловке

Погода в Даниловке : погода сейчас, прогноз погоды и архив. Всё, что Вы хотите узнать о погоде в Даниловке!

Хотите узнать прогноз погоды в Даниловке? Тогда Вам сюда: Погода в Даниловке

Поиск расширенной информации на нашем сайте:

Другие новости

Новости СМИ2

Главная страница сайта

Новости сайта

03.07.2017

Напоминаем, что на нашем специализированном сайте Метеоцентр.Азия вы можете получить высокодетализированные автоматические прогнозы погоды по пунктам России, СНГ и мира в авиационном формате (включающие направление и скорость ветра, видимость, явления погоды, количество и форму облачности, нижнюю и верхнюю границу облачности).


Погода в Даниловке - сегодня

Время (UTC), дата Ветер
(°,м/с) 
Видим.   Явления Облачность Т
(°С)
Тd
(°С)
f(%) Тe
(°С)
Pmin
(гПа)
dP
(гПа)
Po
(мм)
O2
(г/м3)
Тmin Tmax R s Состояние
почвы
09 13.01.18 030 (СВ) 20000 м    ясно 
-7.1 -12.3 66 -10  1040.4  0.6  770  320           
12 13.01.18 020 (С) 20000 м    ясно 
-7.5 -13.5 62 -11  1040.5  770  320           
15 13.01.18 010 (С) 20000 м    ясно 
-12.1 -15.3 77 -12  1041.6  0.8  771  326    -6.4       
18 13.01.18 тихо ()   20000 м    ясно 
-13.9 -16.5 81 -14  1042.2  0.5  771  329           
21 13.01.18 тихо ()   20000 м    ясно 
-16.7 -19.1 82 -17  1042.5  0.1  771  333           
00 14.01.18 020 (С) 20000 м    ясно 
-17.7 -20.2 81 -18  1042.1  -0.4  771  334           
03 14.01.18 тихо ()   20000 м    ясно 
-18.5 -21 81 -19  1041.7  -0.4  771  335  -18.6      <0.5  сухой снег
50-90% 
06 14.01.18 тихо ()   20000 м    ясно 
-17 -19.7 80 -17  1041.8  -0.1  771  333  -18.7         
09 14.01.18 110 (В) 20000 м    ясно 
-8.7 -14.3 64 -8  1040.4  -0.9  770  322           
12 14.01.18 360 (С) 20000 м    ясно 
-7.2 -14.8 55 -9  1039.5  -0.9  769  320           
15 14.01.18 330 (СЗ) 20000 м    ясно 
-12.5 -15.6 78 -12  1039.6  -0.1  769  326    -6.9       
18 14.01.18 010 (С) 20000 м    ясно 
-15 -17.4 82 -15  1039.7  -0.1  769  329           
21 14.01.18 тихо ()   20000 м    ясно 
-16.7 -19 82 -17  1039.7  -0.1  769  332           
00 15.01.18 тихо ()   20000 м    ясно 
-17.7 -20.3 80 -18  1039.4  -0.4  769  333           
03 15.01.18 тихо ()   20000 м    ясно 
-18 -20.6 80 -18  1039.6  0.1  769  333  -18      <0.5  сухой снег
50-90% 
06 15.01.18 тихо ()   20000 м    ясно 
-16.4 -18.9 81 -16  1040.2  0.7  770  331  -18.5         
09 15.01.18 090 (В) 20000 м    ясно 
-8.3 -12.9 69 -8  1039.8  0.1  770  321           
12 15.01.18 160 (Ю) 20000 м    ясно 
-6 -13.7 54 -6  1039  -0.7  769  318           
15 15.01.18 тихо ()   20000 м    ясно 
-11.6 -15.6 72 -12  1039.3  769  325    -5.6       
18 15.01.18 020 (С) 20000 м    ясно 
-15.7 -17.9 83 -16  1039.8  0.3  769  330           
21 15.01.18 тихо ()   20000 м    ясно 
-16.9 -19.4 81 -17  1039.4  -0.5  769  332           
00 16.01.18 тихо ()   20000 м    ясно 
-16.9 -19.4 81 -17  1038.8  -0.6  769  332           
03 16.01.18 070 (В) 20000 м    ясно 
-16.6 -19 82 -19  1037.3  -1.4  767  331  -17.6      <0.5  мокрый или
старый снег
50-90% 
06 16.01.18 080 (В) 20000 м    ясно 
-16.1 -18.7 80 -18  1037  -0.4  767  330           
09 16.01.18 120 (ЮВ) 20000 м    ясно 
-8.4 -15.1 58 -10  1035.3  -1.2  766  320           
Время (UTC), дата Ветер
(°,м/с) 
Видим.   Явления Облачность Т
(°С)
Тd
(°С)
f(%) Тe
(°С)
Pmin
(гПа)
dP
(гПа)
Po
(мм)
O2
(г/м3)
Тmin Tmax R s Состояние
почвы

Для получения пояснительной информации подведите курсор к названию столбца.

ПОГОДА в Даниловке - архив

Всё, что Вы хотите узнать о погоде в Даниловке - удобно и подробно!

Выберите нужную дату (начиная с 1 января 2015* года) и нажмите кнопку "Найти".
Будут отображены архивные сводки погоды по пункту Даниловка, начиная с указанной даты.


Отображать данные в формате CSV (для использования в таблицах Excel)


Внимание! Наш архив погоды предназначен исключительно для личного некоммерческого использования в познавательных целях. Если Вам необходимы официальные справки о состоянии погоды (для производственных, юридических, коммерческих и т.п. целей), обращайтесь в органы Росгидромета.

*Примечание: данная дата относится к архиву по метеостанциям СССР (Россия, СНГ, Балтия).
Архив по метеостанциям Зарубежной Европы и Азии (кроме Китая) хранится 10 дней, по другим регионам земного шара (Китай, Африка, Америка, Австралия, Океания) - 1 день.

Даниловка - район местоположения метеостанции


Название, широта, долгота, высота метеостанции:
Даниловка 50.4°ш. 44.1°д. 102 м над ур. моря [Российская Федерация]

Дополнительная информация

В oтличие oт бoльшинства пoгoдных сайтoв мы публикуем пoдрoбную метеoинфoрмацию в детальнoм прoфессиoнальнoм фoрмате.

Характеристики температуры и влажнoсти вoздуха измеряются на высoте 2 м в тени вдали oт зданий и деревьев.
Скoрoсть ветра измеряется на высoте 10 м (на урoвне рoста челoвека скoрoсть ветра ниже в 1.5-2 раза). Если метеoстанция нахoдится в гoрoде или в лесу, тo скoрoсть ветра занижена на 2-4 м/с пo сравнению с oткрытым местoм. Скoрoсть ветра над акватoриями крупных рек и oзёр, а также на вершинах хoлмoв на 2-5 м/с выше, чем в oбычных услoвиях.
Атмoсфернoе давление в разных тoчках местнoсти мoжет значительнo oтличаться oт давления на метеoстанции, в зависимoсти oт услoвий рельефа (при пoдъёме на 10 м давление пoнижается примернo на 1 мм рт.ст.).